#timestamp,LO_Frequency,Hit,StdDev 
1591905615.5,286047002.5,N
1591905635.3,286047002.1,N
1591905655.1,286047002.9,N
1591905675.9,286047003.5,N
1591905695.7,286047003.2,N
1591905715.5,286047003.7,N
1591905735.4,286047011.9,Y
1591905755.2,286047001.6,P
1591905775.1,286047001.9,P
1591905776.0,286047001.9,P
1591905795.8,286047001.9,Y
1591905815.7,286047000.8,P
1591905835.5,286047000.4,N
1591905855.3,286047000.5,N
1591905875.2,286047001.0,N
1591905895.0,286047002.7,Y
1591905895.9,286047002.7,P
1591905915.7,286047001.2,N
1591905935.6,286046998.2,N
1591905955.4,286046998.6,N
1591905975.4,286046998.1,N
1591905995.2,286046998.2,N
1591906015.0,286047001.0,N
1591906015.9,286047001.0,N
1591906035.8,286046998.1,N
1591906055.6,286047002.8,N
1591906075.4,286046999.7,N
1591906095.3,286046999.9,N
1591906115.1,286047002.4,N
1591906135.9,286047000.7,N
1591906155.7,286046998.6,N
1591906175.6,286046999.6,N
1591906195.4,286046998.9,N
1591906215.2,286047000.2,N
1591906235.1,286047001.1,N
1591906236.0,286047001.1,N
1591906255.8,286047000.0,N
1591906275.7,286046999.9,N
1591906295.5,286047000.5,N
1591906315.3,286046999.8,N
1591906335.2,286047000.7,N
1591906355.0,286046998.4,N
1591906355.9,286046998.4,N
1591906375.8,286046999.1,N
1591906395.6,286046996.6,N
1591906415.4,286046996.5,N
1591906435.3,286046997.1,N
1591906455.1,286046996.8,N
1591906475.8,286046997.0,N
1591906495.7,286046996.1,N
1591906515.5,286046993.8,Y
1591906535.4,286046994.9,P
1591906555.2,286046997.3,N
1591906575.0,286046995.6,N
1591906575.9,286046995.6,N
1591906595.8,286046995.7,N
1591906615.6,286046993.7,Y
1591906635.5,286046996.9,P
1591906655.3,286046997.1,P
1591906675.1,286046999.2,N
1591906695.9,286046998.2,N
1591906715.7,286047000.9,N
1591906735.6,286046999.8,N
1591906755.4,286046998.3,N
1591906775.2,286046998.3,N
1591906795.1,286047001.1,N
1591906796.0,286047001.1,N
1591906815.8,286047000.7,N
1591906835.6,286046999.7,N
1591906855.5,286047000.9,N
1591906875.3,286047000.8,N
1591906895.2,286047001.0,N
1591906915.9,286047002.2,N
1591906935.7,286047000.6,N
1591906955.6,286046998.5,N
1591906975.4,286047000.9,N
1591906995.3,286046999.9,N
1591907015.1,286046998.6,N
1591907016.0,286046998.6,N
1591907035.8,286047002.1,N
1591907055.7,286047000.4,N
1591907075.5,286046998.5,N
1591907095.3,286046997.0,N
1591907115.2,286046996.5,N
1591907135.0,286046999.0,N
1591907135.9,286046999.0,N
1591907155.8,286046999.6,N
1591907175.6,286046997.5,N
1591907195.4,286046999.3,N
1591907215.3,286046999.4,N
1591907235.1,286046999.1,N
1591907255.9,286046998.5,N
1591907275.7,286046999.1,N
1591907295.5,286046996.9,N
1591907315.4,286046999.2,N
1591907335.2,286046996.9,N
1591907355.1,286046999.3,N
1591907356.0,286046999.3,N
1591907375.8,286046999.3,N
1591907395.6,286047001.1,N
1591907415.5,286046998.5,N
1591907435.3,286046999.4,N
1591907455.1,286046999.0,N
1591907475.9,286046996.8,N
1591907495.7,286046999.1,N
1591907515.6,286046999.6,N
1591907535.4,286047002.5,N
1591907555.2,286047000.0,N
1591907575.1,286046998.1,N
1591907576.0,286046998.1,N
1591907595.8,286047000.9,N
1591907615.7,286046998.7,N
1591907635.5,286046999.3,N
1591907655.3,286047000.5,N
1591907675.2,286047000.4,N
1591907695.0,286047001.0,N
1591907695.9,286047001.0,N
1591907715.8,286046999.7,N
1591907735.6,286047002.4,N
1591907755.4,286047002.5,N
1591907775.3,286047001.9,N
1591907795.1,286047001.9,N
1591907815.8,286047001.3,N
1591907835.7,286047004.0,N
1591907855.5,286047002.2,N
1591907875.4,286047002.5,N
1591907895.2,286047002.5,N
1591907915.0,286047001.9,N
1591907915.9,286047001.9,N
1591907935.8,286047003.1,N
1591907955.6,286047002.0,N
1591907975.5,286047002.2,N
1591907995.3,286047002.4,N
1591908015.1,286047001.7,N
1591908035.9,286047002.4,N
1591908055.7,286047001.5,N
1591908075.6,286047002.1,N
1591908095.4,286047002.2,N
1591908115.2,286046999.7,N
1591908135.1,286047001.3,N
1591908136.0,286047001.3,N
1591908155.8,286047001.6,N
1591908175.7,286047003.1,Y
1591908195.5,286046999.7,P
1591908215.3,286047002.8,N
1591908235.2,286047000.2,N
1591908255.0,286046999.9,N
1591908255.9,286046999.9,N
1591908275.8,286046999.8,N
1591908295.6,286047002.6,N
1591908315.4,286047000.5,N
1591908335.3,286047002.3,N
1591908355.1,286047000.0,N
1591908375.8,286047000.0,N
1591908395.7,286047001.0,N
1591908415.5,286047002.1,N
1591908435.4,286047001.8,N
1591908455.2,286047000.2,N
1591908475.0,286047002.6,N
1591908475.9,286047002.6,N
1591908495.8,286047001.4,N
1591908515.6,286047003.8,Y
1591908535.5,286047001.3,P
1591908555.3,286047001.9,P
1591908575.1,286047001.3,P
1591908595.9,286047003.2,Y
1591908615.7,286047004.3,P
1591908635.5,286047004.3,N
1591908655.4,286047000.6,N
1591908675.2,286047000.6,N
1591908695.1,286047000.0,N
1591908696.0,286047000.0,N
1591908715.8,286046999.9,N
1591908735.6,286047000.3,N
1591908755.5,286047002.8,N
1591908775.3,286047000.1,N
1591908795.1,286046999.8,N
1591908815.9,286047001.0,N
1591908835.7,286046998.7,N
1591908855.6,286046998.1,N
1591908875.4,286047000.7,N
1591908895.2,286046998.5,N
1591908915.1,286047000.7,N
1591908916.0,286047000.7,N
1591908935.8,286046999.9,N
1591908955.7,286046999.0,N
1591908975.5,286046998.7,N
1591908995.3,286047000.1,N
1591909015.2,286047000.9,N
1591909035.0,286047004.0,N
1591909035.9,286047004.0,N
1591909055.8,286047000.2,N
1591909075.6,286047002.0,N
1591909095.4,286047002.1,N
1591909115.3,286047001.0,N
1591909135.1,286046999.9,N
1591909155.8,286046998.1,N
1591909175.7,286047000.6,N
1591909195.5,286047001.0,N
